Location: Unspecified
(0.0000°N, 0.0000°E)
Time: 19:07:19
(UTC+00:00)

deb Alouette 1 - Visible Passes

Search period start: 07 December 2025 00:00
Search period end: 17 December 2025 00:00
Orbit: 981 x 1029 km, 80.4° (Epoch: 06 December)

Date Brightness Start Highest point End Pass type
(mag) Time Alt. Az. Time Alt. Az. Time Alt. Az.
07 Dec ? 20:25:11 10° SSW 20:30:02 51° SW 20:30:02 51° SW visible
08 Dec ? 19:14:27 10° SSE 19:19:27 27° E 19:19:27 27° E visible
08 Dec ? 21:00:39 10° SW 21:04:48 24° W 21:04:48 24° W visible
09 Dec ? 19:47:29 10° S 19:53:57 73° E 19:54:15 72° ENE visible
10 Dec ? 18:38:27 10° SE 18:42:03 15° E 18:43:45 14° ENE visible
10 Dec ? 20:22:04 10° SSW 20:28:07 42° W 20:29:06 40° WNW visible
11 Dec ? 19:10:11 10° SSE 19:16:16 43° E 19:18:39 31° NE visible
11 Dec ? 20:58:49 10° WSW 21:02:16 15° W 21:04:00 14° WNW visible
12 Dec ? 19:44:00 10° SSW 19:50:26 71° W 19:53:37 31° N visible
13 Dec ? 18:33:23 10° SSE 18:38:33 26° E 18:43:16 11° NE visible
13 Dec ? 20:19:22 10° SW 20:24:34 26° W 20:28:38 14° NW visible
14 Dec ? 19:06:20 10° S 19:12:45 70° E 19:18:20 14° NNE visible
15 Dec ? 19:40:51 10° SSW 19:46:54 44° W 19:52:53 10° NNW visible
16 Dec ? 18:29:03 10° SSE 18:35:03 41° E 18:40:57 10° NNE visible
16 Dec ? 20:17:25 10° WSW 20:21:03 16° W 20:24:40 10° NW visible
